Regional Weather Roundup
Issued by NWS

Home | Current Version | Previous Version | Text Only | Print | Product List | Glossary Off
Versions: 1 2 3 4 5 6 7 8 9 10 11 12 13 14 15 16 17 18 19 20 21 22 23 24 25 26 27 28 29 30 31 32 33 34 35 36 37 38 39 40 41 42 43 44 45 46 47 48 49 50

000
ASUS43 KFSD 231210
RWRSD

WEATHER ROUNDUP FOR SOUTH DAKOTA
NATIONAL WEATHER SERVICE SIOUX FALLS SD
700 AM CDT WED AUG 23 2017

NOTE: "FAIR" INDICATES FEW OR NO CLOUDS BELOW 12,000 FEET WITH NO
SIGNIFICANT WEATHER AND/OR OBSTRUCTIONS TO VISIBILITY.


SDZ001>005-009-010-012>017-231300-
NORTHWEST AND NORTH CENTRAL SOUTH DAKOTA

CITY           SKY/WX    TMP DP  RH WIND       PRES   REMARKS
BUFFALO          N/A     52  47  83 NE7       30.01S
FAITH            N/A     54  51  90 E7        30.05S
MOBRIDGE       CLEAR     58  45  62 E8        30.06S
$$

SDZ012>016-024>037-041>051-057-063-072>074-231300-
SOUTHWEST AND SOUTH CENTRAL SOUTH DAKOTA

CITY           SKY/WX    TMP DP  RH WIND       PRES   REMARKS
RAPID CTY ARPT CLEAR     52  47  83 CALM      30.05S
PIERRE         CLEAR     58  52  80 SE12      30.05S
CUSTER         CLEAR     59  48  67 VRB6      30.18S
ELLSWORTH AFB  CLEAR     55  49  81 NW3       30.04S
PHILIP         CLEAR     57  51  80 NE6       30.03S
PINE RIDGE     CLEAR     61  51  70 SW6       30.09S
SPEARFISH      FAIR      57  50  77 CALM      30.08S
WINNER         FAIR      61  54  77 S7        30.09S
$$

SDZ004>011-016>023-039-040-231300-
NORTHEAST SOUTH DAKOTA

CITY           SKY/WX    TMP DP  RH WIND       PRES   REMARKS
ABERDEEN       CLEAR     43  43 100 SE3       30.11S
WATERTOWN      CLEAR     48  48 100 CALM      30.13S
BROOKINGS      CLEAR     49  47  93 CALM      30.15
SISSETON         N/A     49  48  97 CALM      30.10S
$$

SDZ017-020-022-023-036>040-048>070-231300-
SOUTHEAST SOUTH DAKOTA

CITY           SKY/WX    TMP DP  RH WIND       PRES   REMARKS
SIOUX FALLS    PTCLDY    51  50  96 CALM      30.15R
HURON          CLEAR     52  49  89 SE6       30.11F
CHAMBERLAIN    CLEAR     56  55  95 E8        30.10S
MITCHELL       CLEAR     52  50  93 E5        30.13S
YANKTON        CLEAR     54  52  94 E5        30.15S FOG
$$

ABBREVIATIONS USED IN REMARKS
   TC - TEMPERATURE IN CELSIUS
  WCI - WIND CHILL INDEX
   HX - HEAT INDEX
  VSB - VISIBILITY





USA.gov is the U.S. government's official web portal to all federal, state and local government web resources and services.